Flag for U.S.A. Weather past 2 weeks in Charlotte, North Carolina, U.S.A.

Now
71 °F

Passing clouds.


Feels Like: 75 °F
Forecast: 67 / 92 °F
Wind: 5 mph from North

Location: Charlotte / Douglas International Airport

Current Time: Aug 2, 2015 at 4:38:37 AM

Latest Report: Aug 2, 2015 at 3:52 AM


Visibility: 10 mi

Pressure: 29.92 "Hg

Humidity: 63%

Dew point: 58 °F

Location of CharlotteLocation

Historic Weather in Charlotte — Graph

°F

Charlotte temperature yesterday

Maximum temperature yesterday: 94 °F (at 4:52 PM)
Minimum temperature yesterday: 69 °F (at 4:52 AM)
Average temperature yesterday: 81 °F

Past Weeks' High & Low Weather Summary

 TemperatureHumidityPressure
High98 °F (Jul 20, 3:52 PM)94% (Jul 20, 5:52 AM)30.04 "Hg (Jul 20, 5:52 AM)
Low68 °F (Jul 25, 6:52 AM)23% (Aug 1, 4:52 PM)29.71 "Hg (Jul 21, 3:52 PM)
Average82 °F62%29.93 "Hg
* Reported Jul 18 2:52 AM — Aug 2 2:52 AM, Charlotte, Weather by CustomWeather, © 2015

Note: Actual official high and low records may vary slightly from our data, if they occured in-between our weather recording intervals... More about our weather records

Advertising

Charlotte weather history for previous 24 hours

 ConditionsComfort  
Time TempWeatherWind HumidityBarometerVisibility
2:52 AM
Sun, Aug 2
73 °FPassing clouds.5 mph57%29.91 "Hg10 mi
1:52 AM74 °FPassing clouds.5 mph56%29.93 "Hg10 mi
12:52 AM77 °FClear.3 mph48%29.93 "Hg10 mi
11:52 PM
Sat, Aug 1
75 °FClear.3 mph52%29.92 "Hg10 mi
10:52 PM84 °FClear.5 mph35%29.92 "Hg10 mi
9:52 PM76 °FClear.5 mph48%29.91 "Hg10 mi
8:52 PM81 °FPassing clouds.3 mph37%29.88 "Hg10 mi
7:52 PM86 °FPassing clouds.6 mph29%29.87 "Hg10 mi
6:52 PM92 °FPassing clouds.7 mph26%29.87 "Hg10 mi
5:52 PM93 °FPassing clouds.6 mph25%29.88 "Hg10 mi
4:52 PM94 °FPassing clouds.7 mph23%29.88 "Hg10 mi
3:52 PM91 °FPassing clouds.3 mph26%29.90 "Hg10 mi
2:52 PM92 °FPassing clouds.7 mph26%29.92 "Hg10 mi
1:52 PM90 °FPassing clouds.6 mph26%29.94 "Hg10 mi
12:52 PM90 °FScattered clouds.5 mph25%29.96 "Hg10 mi
11:52 AM89 °FScattered clouds.8 mph29%29.97 "Hg10 mi
10:52 AM87 °FScattered clouds.5 mph36%29.97 "Hg10 mi
9:52 AM83 °FScattered clouds.7 mph44%29.97 "Hg10 mi
8:52 AM79 °FPassing clouds.5 mph52%29.96 "Hg10 mi
7:52 AM73 °FPassing clouds.3 mph64%29.96 "Hg10 mi
6:52 AM69 °FPassing clouds.3 mph73%29.95 "Hg10 mi
5:52 AM70 °FPassing clouds.3 mph68%29.93 "Hg10 mi
4:52 AM69 °FPassing clouds.8 mph73%29.93 "Hg10 mi
Weather by CustomWeather, © 2015

See weather overviewHow to use our weather pages